Location: Bârcea-Mare
(45.8333°N, 22.9667°E)
Time: 22:05:40
(UTC+00:00)

Daily predictions for brighter satellites

Satellite Brightness Start Highest point End
(mag) Time Altitude Azimuth Time Altitude Azimuth Time Altitude Azimuth
Cosmos 1503 Rocket 4.1 15:08:18 10° S 15:13:28 67° ESE 15:18:38 10° NNE
Cosmos 2228 4.1 15:10:20 10° SSW 15:14:25 46° WNW 15:18:32 10° N
CZ-4C R/B 3.0 15:07:24 10° NW 15:14:27 79° NE 15:23:10 10° SE
Cosmos 1606 Rocket 4.4 15:10:50 10° SSE 15:14:44 31° E 15:18:40 10° NNE
NOSS 2-3 (D) 4.1 15:13:07 10° S 15:16:26 31° ESE 15:19:47 10° ENE
NOSS 2-3 (E) 4.0 15:13:39 10° S 15:17:01 34° ESE 15:20:26 10° NE
BREEZE-M DEB (TANK) 1.3 15:17:06 10° SW 15:18:40 41° SSE 15:20:39 10° ENE
BREEZE M DEB (TANK) 3.8 15:04:15 10° WNW 15:19:43 89° SSW 15:23:43 10° ESE
Thor Agena Rocket 3.7 15:14:46 10° SE 15:19:49 55° ENE 15:24:50 10° N
USA 238 DEB 4.3 15:15:40 10° S 15:21:00 34° ESE 15:26:45 10° NE
USA 238 4.3 15:15:48 10° S 15:21:08 33° ESE 15:26:52 10° NE
UNK 4.2 15:17:43 10° NNE 15:22:04 42° E 15:26:22 10° S
Lacrosse 5 rocket 3.1 15:19:49 10° NW 15:22:09 16° N 15:24:26 10° NNE
Cosmos 1544 Rocket 4.0 15:19:40 10° SSW 15:24:02 67° W 15:28:29 10° N
Cosmos 1354 Rocket 4.1 15:19:19 10° S 15:24:27 58° ESE 15:29:37 10° NNE
Cosmos 1484 Rocket 2.6 15:21:39 10° SSE 15:25:09 85° W 15:28:40 10° NNW
Cosmos 1777 Rocket 4.1 15:21:33 10° SSW 15:26:48 82° WNW 15:32:04 10° NNE
Cosmos 1743 2.6 15:26:10 10° NNW 15:29:25 69° W 15:32:36 10° S
IGS 5A 3.3 15:26:41 10° SSE 15:30:39 87° ENE 15:34:38 10° NNW
Gbstr 26 Del rocket 2.8 15:26:36 10° WSW 15:30:52 88° SSE 15:34:27 11° ENE
MOS 1 Rocket 4.1 15:26:24 10° SE 15:30:53 35° ENE 15:35:35 10° N
USA 215 4.1 15:25:20 10° NE 15:31:10 36° N 15:37:01 10° WNW
Cosmos 2151 2.9 15:30:05 10° N 15:34:16 88° W 15:38:26 10° S
Cosmos 1900 4.5 15:29:16 10° NW 15:34:19 83° WSW 15:39:15 10° SSE
Cosmos 1726 Rocket 4.1 15:32:56 10° SSE 15:37:16 41° E 15:41:33 10° NNE
BREEZE-M DEB (TANK) 2.9 15:34:42 10° WNW 15:37:34 59° NNE 15:45:46 10° E
IRIDIUM 104 4.3 15:32:41 10° N 15:37:56 76° E 15:43:08 10° S
Meteor 1-20 Rocket 4.2 15:32:33 10° N 15:38:02 87° E 15:43:31 10° S
SMAP 3.0 15:35:41 10° SSE 15:40:17 68° ENE 15:44:56 10° N
Cosmos 2297 Rocket 3.2 15:34:55 10° NW 15:40:25 53° WSW 15:45:53 10° S
GEOS 3 Rocket 3.8 15:38:20 10° NE 15:43:41 63° SE 15:49:00 10° SSW
Landsat 7 3.8 15:39:54 10° SSE 15:44:27 58° ENE 15:49:02 10° N
Cosmos 2084 Rocket 4.5 15:40:42 10° NW 15:44:46 49° WSW 15:48:50 10° SSE
NOSS 7 (H) 4.3 15:42:09 10° NW 15:45:05 77° SW 15:48:23 10° SSE
Cosmos 1602 Rocket 4.1 15:42:10 10° NNW 15:46:30 64° W 15:50:46 10° S
IRIDIUM 114 4.4 15:41:49 10° N 15:47:04 90° WNW 15:52:17 10° S
Cosmos 1805 4.4 15:45:40 10° NNE 15:47:56 17° ENE 15:50:11 10° ESE
YAOGAN 1 3.8 15:45:59 10° ESE 15:48:59 19° ENE 15:52:01 10° NNE
SL-16 R/B 3.1 15:45:13 10° N 15:51:21 62° WNW 15:57:25 10° SSW
Cosmos 990 Rocket 3.9 15:47:03 10° SSW 15:52:11 85° ESE 15:57:22 10° NNE
COSMOS 2455 4.3 15:49:52 10° SE 15:53:34 17° ESE 15:55:26 15° E
Okean 1-7 Rocket 3.7 15:49:35 10° NNW 15:53:59 79° W 15:58:20 10° S
BREEZE M DEB (TANK) 1.5 15:53:34 10° WSW 15:56:03 77° NNW 15:56:59 27° ENE
CZ-2D R/B 4.4 15:54:25 10° ESE 15:57:54 26° ENE 16:01:20 10° N
Cosmos 1461 4.3 15:55:08 10° WSW 15:58:35 29° NW 16:02:04 10° NNE
SKYMED 2 4.4 15:58:01 14° NE 16:01:09 31° E 16:04:59 10° SSE
CORIOLIS 4.4 15:56:13 10° S 16:01:32 75° WSW 16:06:54 10° NNW
Cosmos 1980 Rocket 2.3 15:57:11 10° S 16:02:41 56° ESE 16:07:35 13° NE
Cosmos 1844 Rocket 4.0 15:59:24 10° N 16:03:15 18° NE 16:04:08 18° NE
Cosmos 2219 3.5 15:58:07 10° NNW 16:03:38 45° ENE 16:09:07 10° SE
Okean 1 4.1 16:00:46 10° SE 16:03:41 23° E 16:04:06 23° E
Aureole 1 Rocket 3.5 16:01:48 10° S 16:06:09 54° ESE 16:11:23 11° NNE
SJ-6F 4.3 16:04:20 10° SSE 16:08:16 61° ENE 16:12:15 10° N
NOSS 3-2 (C) 4.1 16:05:36 10° WSW 16:10:30 43° NW 16:15:55 12° NNE
Cosmos 1953 Rocket 3.5 16:06:49 10° N 16:11:15 68° E 16:15:40 10° SSE
ARIANE 5 R/B 2.6 16:06:30 10° SSE 16:11:34 83° WSW 16:16:45 10° NNW
Cosmos 2263 Rocket 2.1 16:06:27 10° NNW 16:12:09 74° ENE 16:17:50 10° SSE
IRS-1C 4.2 16:07:02 10° SSE 16:12:21 84° WSW 16:17:43 10° NNW
PSLV R/B 4.3 16:13:46 26° ENE 16:13:46 26° ENE 16:17:08 10° N
Meteor 1-5 Rocket 4.1 16:11:12 10° N 16:16:36 88° W 16:22:07 10° S
Cosmos 1680 Rocket 4.3 16:14:24 10° N 16:18:54 28° ENE 16:20:04 26° E
Cosmos 1825 Rocket 4.2 16:14:50 10° NNW 16:19:06 58° W 16:23:18 10° S
Cosmos 2369 4.1 16:14:51 10° S 16:20:14 44° ESE 16:23:23 23° NE
Meteor 2-10 4.1 16:16:44 10° N 16:22:09 66° ENE 16:27:41 10° SSE
COSMO-SKYMED 1 3.1 16:22:48 32° E 16:23:21 33° E 16:27:05 10° SSE
SAR-Lupe-4 4.3 16:20:57 10° S 16:24:25 54° W 16:27:55 10° NNW
Cosmos 1076 Rocket 3.6 16:21:59 10° NNW 16:26:18 77° W 16:30:36 10° S
Cosmos 1655 Rocket 4.0 16:20:41 10° N 16:26:56 84° W 16:33:09 10° S
SOZ 4.3 16:24:44 10° W 16:26:58 42° NNW 16:26:58 42° NNW
USA 81 3.9 16:26:28 10° N 16:31:45 75° E 16:37:00 10° S
Cosmos 2227 Rocket 3.3 16:26:40 10° NW 16:32:04 47° WSW 16:37:26 10° S
Cosmos 44 Rocket 4.5 16:29:02 10° NNW 16:33:16 26° NE 16:33:16 26° NE
SPOT 1/Viking Rocket 3.4 16:30:13 10° SSE 16:35:24 80° ENE 16:40:38 10° NNW
Cosmos 1697 Rocket 4.0 16:37:14 10° WSW 16:42:24 37° NW 16:47:32 10° NNE
CENTAUR R/B 4.4 16:39:57 10° NW 16:44:55 21° N 16:48:31 15° NNE
Cosmos 2058 Rocket 3.1 16:41:18 10° S 16:45:46 81° W 16:49:15 17° N
NOSS 2-3 (C) 4.2 16:43:30 10° WSW 16:46:46 38° NW 16:47:48 30° N
Cosmos 2333 Rocket 3.9 16:45:43 10° SSE 16:47:30 17° SE 16:47:30 17° SE
Meteor 2-11 Rocket 4.4 16:45:03 10° N 16:51:08 58° ENE 16:57:10 10° SSE
Meteor 1-14 Rocket 4.4 16:51:15 10° N 16:56:29 46° ENE 16:56:29 46° ENE
MINOTAUR IV R/B 4.4 16:53:56 10° NNW 16:58:13 70° NE 16:58:13 70° NE
EXPRESS MD2 3.4 16:56:55 10° WSW 16:59:01 54° W 16:59:01 54° W
Lacrosse 5 rocket 3.4 16:57:51 10° NNW 16:58:51 14° NNW 16:58:51 14° NNW
Cosmos 2322 Rocket 4.4 16:57:03 10° SSE 16:57:11 10° SSE 16:57:11 10° SSE
Resurs 1-3 3.6 17:01:27 10° S 17:05:45 76° WSW 17:10:04 10° NNW
Cosmos-2242 3.8 17:04:55 10° SSW 17:09:01 48° WNW 17:11:23 23° NNW
Nadezhda 2 Rocket 4.5 17:04:34 10° N 17:10:41 79° W 17:16:46 10° S
USA 238 DEB 4.0 17:05:34 10° WSW 17:11:34 54° NW 17:14:48 29° NNE
USA 238 4.0 17:05:39 10° WSW 17:11:41 55° NW 17:14:55 30° NNE
Spot 4 Rocket 4.3 17:07:15 10° S 17:12:19 68° WSW 17:17:26 10° NNW
USA 215 4.0 17:12:07 34° NNE 17:13:12 36° N 17:19:04 10° NW
Cosmos 1898 Rocket 4.0 17:09:04 10° SW 17:14:06 55° WNW 17:16:31 29° N
Cosmos 1553 Rocket 4.0 17:08:50 10° SSW 17:15:00 78° W 17:21:20 10° N
S3M 4.2 17:09:25 10° SSE 17:14:31 48° SE 17:14:31 48° SE
Gbstr 26 Del rocket 4.2 17:13:49 10° WNW 17:16:29 30° NW 17:16:29 30° NW
IRAS Rocket 4.3 17:13:00 10° SSE 17:18:29 77° WSW 17:23:59 10° NNW
Cosmos 2082 4.1 17:15:06 10° NNW 17:20:44 62° WSW 17:26:22 10° S
Cosmos 2112 Rocket 4.4 17:15:34 10° NNW 17:19:27 49° N 17:19:27 49° N
YAOGAN 1 3.5 17:20:26 10° S 17:24:31 45° W 17:28:38 10° NNW
Meteor 2-6 Rocket 4.2 17:22:13 10° SSW 17:27:54 84° WNW 17:29:22 53° N
Cosmos 923 Rocket 4.4 17:24:23 10° NNW 17:29:30 60° WSW 17:32:38 23° S
Cosmos 1937 Rocket 4.0 17:24:36 10° SW 17:29:40 54° WNW 17:30:51 44° NNW
Cosmos 2237 4.2 17:24:37 10° SSW 17:30:21 80° WNW 17:30:55 71° N
SL-16 R/B 2.8 17:25:34 10° S 17:29:26 43° S 17:29:26 43° S
Cosmos 1745 Rocket 3.8 17:26:29 10° N 17:32:41 85° E 17:38:48 10° S
SL-24 R/B - RUBIN 2 4.1 17:30:00 10° SW 17:34:52 67° W 17:34:52 67° W
COSMOS 2455 2.7 17:32:39 10° SSW 17:38:36 86° W 17:38:36 86° W
BREEZE-M DEB (TANK) 3.8 17:24:34 10° WNW 17:43:30 84° SSW 17:44:18 71° SE
Cosmos 1980 Rocket 3.9 17:42:15 10° WSW 17:47:01 27° NW 17:49:21 21° NNW
Cosmos 1844 Rocket 3.6 17:42:17 10° NNW 17:45:49 40° NNW 17:45:49 40° NNW
Cosmos 2333 Rocket 4.4 18:28:10 10° SW 18:29:34 18° SW 18:29:34 18° SW
